Regional Weather Roundup
Issued by NWS Kansas City/Pleasant Hill, MO

Home | Current Version | Previous Version | Graphics & Text | Print | Product List | Glossary Off
Versions: 1 2 3 4 5 6 7 8 9 10 11 12 13 14 15 16 17 18 19 20 21 22 23 24 25 26 27 28 29 30 31 32 33 34 35 36 37 38 39 40 41 42 43 44 45 46 47 48 49 50

000
ASUS43 KEAX 020310
RWREAX

WEATHER ROUNDUP FOR EASTERN KANSAS AND NORTHWEST MISSOURI
NATIONAL WEATHER SERVICE KANSAS CITY/PLEASANT HILL MO
1000 PM CDT MON SEP 01 2014

KSZ040-057-103>105-MOZ028-029-037-043-020400-
...KANSAS CITY METROPOLITAN AREA...

CITY           SKY/WX    TMP DP  RH WIND       PRES   REMARKS
K.C. INTL      CLOUDY    71  69  93 S3        29.89R
K.C. DOWNTOWN  LGT RAIN  73  69  87 SE5       29.88R
LEES SUMMIT    RAIN      72  70  93 W7        29.92R FOG
OLATHE - IXD   CLOUDY    70  69  97 NE8       29.89F
OLATHE - OJC   CLOUDY    70  70 100 N3        29.88F
LAWRENCE       LGT RAIN N/A N/A N/A E6        29.87S

$$

MOZ001>008-011>017-020>025-030>033-038>040-044>046-053-054-020400-
...NORTHERN AND CENTRAL MISSOURI...

CITY           SKY/WX    TMP DP  RH WIND       PRES   REMARKS
ST. JOSEPH     PTCLDY    67  65  93 CALM      29.88R
MOSBY          RAIN      73  72  94 CALM      29.88R
WHITEMAN AFB   MOCLDY    72  70  94 SE8       29.87F
CLINTON        CLOUDY    73  72  94 CALM      29.90R
SEDALIA        CLOUDY    72  70  93 E5        29.91R FOG
WARSAW         NOT AVBL
MARSHALL       CLOUDY    73  73 100 SE3       29.91R
CHILLICOTHE      N/A     71  68  90 CALM      29.89R
MOBERLY        LGT RAIN  73  68  83 S6        29.90R
KIRKSVILLE     CLOUDY    71  67  87 CALM      29.90R

$$

MOZ041-047>049-056>058-063>065-088>090-097-020400-
...EASTERN AND SOUTHERN MISSOURI...

CITY           SKY/WX    TMP DP  RH WIND       PRES   REMARKS
ST. LOUIS INTL LGT RAIN  74  70  87 NE8       29.89F
SPIRIT OF STL  CLOUDY    73  70  88 N6        29.87F
COLUMBIA       LGT RAIN  71  70  96 CALM      29.92S
JEFFERSON CITY LGT RAIN  72  70  93 CALM      29.90R
HANNIBAL       CLOUDY    73  68  83 S7        29.91R
ROLLA          CLOUDY    75  68  78 S8        29.88R
OSAGE BEACH    CLOUDY    73  70  88 SE3       29.88F
SPRINGFIELD    CLOUDY    80  70  71 S14       29.89R
BRANSON        CLOUDY    77  70  78 CALM      29.94R
WEST PLAINS    MOCLDY    79  69  71 S8        29.95R

$$

IAZ060-094-KSZ022-034>040-054-083-096-NEZ052-066-093-020400-
...KANSAS...SOUTHEAST NEBRASKA AND IOWA...

CITY           SKY/WX    TMP DP  RH WIND       PRES   REMARKS
TOPEKA         MOCLDY    72  71  97 SE3       29.88R
MANHATTAN      CLOUDY    71  69  93 CALM      29.87R
EMPORIA        LGT RAIN  72  69  90 E7        29.90R
CHANUTE        CLOUDY    75  71  87 NE9       29.88R
WICHITA        MOCLDY    76  68  76 NE18      29.87R
OMAHA          PTCLDY    67  61  81 CALM      29.87F
LINCOLN        CLEAR     66  63  90 NW5       29.89R
FALLS CITY     CLEAR     68  64  87 S7        29.85R
LAMONI         PTCLDY    70  65  84 S5        29.86F
DES MOINES     CLOUDY    71  64  78 NW6       29.86R

$$



USA.gov is the U.S. government's official web portal to all federal, state and local government web resources and services.